EHI
0 0 0 0 0 0 0 0 0 0 0 0 0 0 0 0 0 0 0 0 0 0 0 0 0 0 0 0 0 0 0 0 0 0 0 0 0 0 0 0 0 0 0
0 0 0 0 0 0 0 0 0 0 0 0 0 0 0 0 0 0 0 0 0 0 0 0 0 0 0 0 0 0 0 0 0 0 0 0 0 0 0 0 0 0 0
0 0 0 0 0 0 0 0 0 0 0 0 0 0 0 0 0 0 0 0 0 0 0 0 0 0 0 0 0 0 0 0 0 0 0 0 0 0 0 0 0 0 0
0 0 0 0 0 0 0 0 0 0 0 0 0 0 0 0 0 0 0 0 0 0 0 0 0 0 0 0 0 0 0 0 0 0 0 0 0 0 0 0 0 0 0
0 0 0 0 0 0 0 0 0 0 0 0 0 0 0 0 0 0 0 0 0 0 0 0 0 0 0 0 0 0 0 0 0 0 0 0 0 0 0 0 0 0 0
0 0 0 0 0 0 0 0 0 0 0 0 0 0 0 0 0 0 0 0 0 0 0 0 0 0 0 0 0 0 0 0 0 0 0 0 0 0 0 0 0 0 0
0 0 0 0 0 0 0 0 0 0 0 0 0 0 0 0 0 0 0 0 0 0 0 0 0 0 0 0 0 0 0 0 0 0 0 0 0 0 0 0 0 0 0
0 0 0 0 0 0 0 0 0 0 0 0 0 0 0 0 0 0 0 0 0 0 0 0 0 0 0 0 0 0 0 0 0 0 0 0 0 0 0 0 0 0 0
0 0 0 0 0 0 0 0 0 0 0 0 0 0 0 0 0 0 0 0 0 0 0 0 0 0 0 0 0 0 0 0 0 0 0 0 0 0 0 0 0 0 0
0 0 0 0 0 0 0 0 0 0 0 0 0 0 0 0 0 0 0 0 0 0 0 0 0 0 0 0 0 0 0 0 0 0 0 0 0 0 0 0 0 0 0
0 0 0 0 0 0 0 0 0 0 0 0 0 0 0 0 0 0 0 0 0 0 0 0 0 0 0 0 0 0 0 0 0 0 0 0 0 0 0 0 0 0 0
0 0 0 0 0 0 0 0 0 0 0 0 0 0 0 0 0 0 0 0 0 0 0 0 0 0 0 0 0 0 0 0 0 0 0 0 0 0 0 0 0 0 0
0 0 0 0 0 0 0 0 0 0 0 0 0 0 0 0 0 0 0 0 0 0 0 0 0 0 0 0 0 0 0 0 0 0 0 0 0 0 0 0 0 0 0
0 0 0 0 0 0 0 0 0 0 0 0 0 0 0 0 0 0 0 0 0 0 0 0 0 0 0 0 0 0 0 0 0 0 0 0 0 0 0 0 0 0 0
0 0 0 0 0 0 0 0 0 0 0 0 0 0 0 0 0 0 0 0 0 0 0 0 0 0 0 0 0 0 0 0 0 0 0 0 0 0 0 0 0 0 0
0 0 0 0 0 0 0 0 0 0 0 0 0 0 0 0 0 0 0 0 0 0 0 0 0 0 0 0 0 0 0 0 0 0 0 0 0 0 0 0 0 0 0
0 0 0 0 0 0 0 0 0 0 0 0 0 0 0 0 0 0 0 0 0 0 0 0 0 0 0 0 0 0 0 0 0 0 0 0 0 0 0 0 0 0 0
0 0 0 0 0 0 0 0 0 0 0 0 0 0 0 0 0 0 0 0 0 0 0 0 0 0 0 0 0 0 0 0 0 0 0 0 0 0 0 0 0 0 0
0 0 0 0 0 0 0 0 0 0 0 0 0 0 0 0 0 0 0 0 0 0 0 0 0 0 0 0 0 0 0 0 0 0 0 0 0 0 0 0 0 0 0
0 0 0 0 0 0 0 0 0 0 0 0 0 0 0 0 0 0 0 0 0 0 0 0 0 0 0 0 0 0 0 0 0 0 0 0 0 0 0 0 0 0 0
0 0 0 0 0 0 0 0 0 0 0 0 0 0 0 0 0 0 0 0 0 0 0 0 0 0 0 0 0 0 0 0 0 0 0 0 0 0 0 0 0 0 0
0 0 0 0 0 0 0 0 0 0 0 0 0 0 0 0 0 0 0 0 0 0 0 0 0 0 0 0 0 0 0 0 0 0 0 0 0 0 0 0 0 0 0
0 0 0 0 0 0 0 0 0 0 0 0 0 0 0 0 0 0 0 0 0 0 0 0 0 0 0 0 0 0 0 0 0 0 0 0 0 0 0 0 0 0 0
0 0 0 0 0 0 0 0 0 0 0 0 0 0 0 0 0 0 0 0 0 0 0 0 0 0 0 0 0 0 0 0 0 0 0 0 0 0 0 0 0 0 0
0 0 0 0 0 0 0 0 0 0 0 0 0 0 0 0 0 0 0 0 0 0 0 0 0 0 0 0 0 0 0 0 0 0 0 0 0 0 0 0 0 0 0
0 0 0 0 0 0 0 0 0 0 0 0 0 0 0 0 0 0 0 0 0 0 0 0 0 0 0 0 0 0 0 0 0 0 0 0 0 0 0 0 0 0 0
Wind_Speed
7 6 6 5 4 3 3 4 3 2 1 1 2 3 3 4 5 5 5 6 6 6 7 7 7 7 6 6 6 6 7 8 11 9 7 7 9 9 8 8 10 10 8
7 6 5 4 3 3 4 4 3 2 1 2 3 4 5 6 5 5 5 6 6 7 8 8 8 8 8 7 6 7 7 7 9 10 7 7 9 9 9 9 11 11 7
7 6 5 4 3 3 4 4 2 1 2 3 4 5 5 5 4 6 8 9 9 9 9 9 8 8 8 8 9 9 8 9 7 8 9 7 8 9 9 11 11 8 8
5 5 4 3 3 3 4 3 2 3 4 4 4 5 6 7 9 10 10 9 8 8 9 8 7 7 8 8 8 8 9 8 8 8 8 7 7 8 8 7 6 4 3
2 2 3 3 3 3 3 3 3 4 5 6 6 7 7 6 8 8 8 9 9 9 8 7 8 11 13 9 10 9 10 9 9 8 8 8 8 7 7 5 5 4 4
3 2 3 3 2 3 2 2 4 5 6 6 7 7 6 6 5 6 6 8 9 9 8 8 9 10 11 14 19 19 16 12 10 9 9 10 11 10 8 7 6 6 5
8 8 5 3 2 2 3 6 7 6 6 6 6 6 4 4 3 2 7 9 9 8 9 9 9 10 12 9 13 18 16 17 17 12 12 13 13 12 10 9 7 7 6
3 3 4 2 2 4 7 7 7 6 6 6 6 6 5 2 2 3 11 10 8 7 9 10 10 12 12 11 12 12 12 11 13 12 11 12 12 9 8 8 9 8 7
5 4 0 4 5 7 7 7 6 5 5 5 6 6 6 4 3 6 12 10 8 9 10 11 11 11 12 13 13 13 13 11 13 14 13 12 14 14 10 8 8 7 6
2 4 5 6 5 5 6 5 4 3 4 5 5 5 6 6 7 9 13 9 10 10 10 10 12 11 13 15 12 11 12 10 8 8 8 8 7 7 9 8 5 4 3
5 5 7 6 5 6 5 3 3 4 4 4 6 6 6 6 7 10 12 9 9 10 10 9 8 14 16 17 14 9 10 10 8 7 5 4 4 3 3 5 5 3 2
5 7 7 6 7 6 5 4 4 5 5 6 7 8 7 7 9 11 14 13 12 10 9 8 9 16 17 16 11 11 11 7 3 3 3 3 3 3 4 6 7 7 6
6 6 6 6 6 6 5 6 5 5 6 6 7 7 8 8 8 12 14 16 14 9 8 14 16 17 15 9 11 12 9 5 3 3 3 4 3 3 2 3 5 5 5
4 3 5 6 6 5 4 5 5 6 6 6 6 6 7 8 8 9 9 10 11 9 9 11 13 12 9 9 8 7 5 5 4 4 4 3 3 4 5 4 4 4 3
3 3 6 6 5 3 4 4 5 6 5 4 5 6 6 7 10 14 10 8 8 8 9 6 5 7 6 6 6 6 6 6 6 5 4 3 3 4 4 3 2 3 3
4 4 4 5 4 4 3 3 3 3 4 2 1 4 6 7 12 13 15 14 12 13 7 6 7 7 7 7 6 6 5 5 5 4 4 4 4 3 3 3 3 5 6
5 5 5 4 4 3 4 3 2 3 4 4 1 5 8 10 11 14 16 14 9 10 6 6 7 7 7 6 6 5 6 6 5 4 5 4 4 4 5 5 6 6 7
5 5 4 3 3 3 3 3 4 4 4 3 2 7 11 12 11 13 14 11 8 8 6 6 6 7 7 6 5 5 5 6 5 5 5 4 4 5 6 6 6 6 7
7 5 4 3 3 4 4 4 5 6 5 5 5 6 9 11 9 11 11 8 7 7 6 6 6 7 7 6 5 5 5 5 6 6 5 4 4 5 5 5 5 8 7
4 2 4 4 5 5 4 5 5 5 5 4 4 5 6 7 8 8 7 7 6 6 6 6 6 7 7 6 6 5 5 6 7 6 4 3 3 3 4 4 4 5 5
4 3 1 5 6 6 5 5 5 5 5 4 4 4 5 6 7 8 7 7 6 6 7 6 6 6 7 6 6 6 7 7 7 6 4 3 3 2 2 4 3 3 4
4 5 6 6 6 5 5 5 6 6 7 7 5 7 7 6 6 6 6 6 6 6 6 6 6 5 6 6 6 7 7 7 8 8 5 4 4 5 4 4 3 2 3
6 7 6 6 6 6 6 8 7 7 8 7 6 7 7 5 5 6 6 6 6 5 5 5 6 6 6 4 4 5 6 7 8 9 5 3 4 4 5 4 5 4 5
8 8 8 8 7 7 7 7 7 8 7 6 7 7 5 3 2 3 5 5 5 5 5 5 5 8 9 7 5 5 6 7 8 8 9 4 3 3 3 4 4 5 5
8 8 7 7 7 7 7 7 7 7 7 7 7 6 5 4 4 4 3 4 5 5 5 5 5 6 9 11 10 9 10 11 9 8 8 5 4 4 3 1 2 2 3
8 8 7 6 6 7 7 7 7 7 6 6 6 6 6 6 6 6 4 4 5 6 6 5 8 10 12 10 11 10 10 11 11 10 7 5 6 5 3 1 2 3 5
Wind_Direction
90 90 103 111 120 132 118 119 107 82 122 253 315 318 308 293 279 270 270 277 284 294 301 301 297 291 288 285 279 273 266 264 275 283 284 283 280 279 284 286 282 267 260
114 110 109 123 150 165 130 109 119 120 308 320 315 309 303 297 294 299 316 338 345 339 330 323 319 322 325 317 306 298 290 281 279 286 288 291 293 299 287 281 285 275 261
136 137 142 157 159 142 118 101 73 19 310 303 301 300 305 316 346 15 18 8 353 337 327 322 324 327 317 311 308 302 298 295 292 291 292 289 288 287 289 287 279 274 272
126 131 147 153 134 119 97 84 25 348 329 333 342 348 357 21 41 29 13 355 340 326 319 319 318 310 300 302 302 298 296 295 292 287 285 283 282 282 279 281 289 295 309
109 139 138 125 114 97 71 37 11 2 359 6 3 5 16 52 46 32 6 349 329 315 311 309 303 300 301 304 307 306 303 296 293 289 289 294 293 295 295 301 308 313 296
17 45 74 56 58 67 53 39 42 33 20 14 11 9 20 57 79 46 9 337 318 315 315 312 308 303 312 313 306 300 296 294 295 293 291 289 290 293 298 301 302 299 288
26 17 10 0 19 40 36 46 43 31 24 22 16 10 28 119 127 31 354 323 319 324 325 320 318 316 313 303 305 301 293 286 281 280 281 282 283 285 291 294 288 284 279
9 313 304 307 81 58 51 45 37 29 23 12 2 358 348 40 141 16 346 323 322 332 327 320 317 315 311 312 308 299 288 278 271 270 270 277 281 285 287 286 283 277 268
231 235 116 47 46 53 50 41 37 16 9 359 3 351 342 359 51 31 358 333 331 331 322 315 310 310 314 316 309 298 292 285 274 268 270 276 277 277 276 275 266 259 264
134 89 67 47 34 56 57 38 14 353 359 352 353 341 343 360 45 40 5 343 336 328 317 312 310 313 313 312 308 298 292 293 299 306 302 294 281 279 284 282 276 257 250
114 89 67 36 23 69 53 26 10 5 2 3 4 358 357 11 41 27 1 347 334 318 313 317 320 328 326 320 315 302 290 292 295 297 299 303 304 316 351 16 22 12 349
92 78 66 46 29 40 45 37 33 11 11 23 13 3 1 8 13 359 343 329 321 315 317 320 324 327 326 325 328 337 333 321 304 310 315 321 347 28 40 46 40 32 26
77 78 82 73 63 41 35 30 30 27 28 24 12 2 352 349 354 354 338 327 326 327 322 325 329 326 327 331 337 342 347 351 349 350 0 13 27 35 36 56 45 22 10
71 78 116 98 81 57 30 31 36 35 29 23 9 354 346 344 352 345 333 329 335 335 330 327 328 331 342 344 342 348 355 0 2 13 23 26 29 36 43 46 33 1 357
100 65 101 94 79 57 53 49 42 64 55 30 7 350 347 345 339 329 332 335 334 328 325 336 347 345 356 357 352 356 2 7 12 13 12 8 38 56 50 42 29 3 17
59 66 85 87 67 43 38 97 107 94 145 153 284 331 352 350 337 338 342 341 340 341 351 357 353 351 352 356 355 359 359 3 360 353 354 8 32 62 62 44 34 34 39
54 44 56 61 62 41 26 30 93 160 195 198 153 12 5 355 350 348 347 343 355 2 10 360 354 349 349 353 357 358 359 2 357 351 353 12 44 55 51 54 57 53 55
64 74 52 60 62 49 30 42 51 46 50 50 65 33 9 358 357 356 351 356 8 11 6 358 351 346 343 348 355 357 2 4 356 350 351 20 62 74 73 68 66 65 65
43 34 10 27 61 64 48 54 57 47 43 34 26 19 6 354 2 9 6 11 1 359 358 354 348 344 343 350 355 356 3 357 351 353 8 39 70 91 95 93 89 87 82
110 55 347 23 45 47 50 49 53 49 49 45 35 17 1 3 7 5 6 2 360 357 354 350 347 346 345 350 360 359 355 352 352 354 10 38 53 92 113 124 122 110 108
65 82 11 41 42 31 38 39 49 60 54 46 47 48 31 21 10 2 359 356 354 350 348 347 348 346 344 351 1 2 2 358 353 351 7 26 19 23 95 112 107 105 122
37 52 49 41 57 34 23 37 41 53 55 44 41 69 74 37 10 359 355 351 348 345 343 344 345 343 343 354 5 9 7 1 350 343 355 22 15 9 32 81 96 80 85
44 46 50 45 43 52 39 34 39 55 53 38 42 58 57 35 4 355 353 350 348 350 350 349 348 349 347 346 357 11 5 348 333 329 339 28 31 26 29 45 57 55 54
51 42 39 36 40 43 44 41 40 51 54 41 48 61 61 48 24 7 355 353 355 352 348 346 348 346 352 359 1 12 4 343 332 332 335 5 43 57 36 36 53 65 64
51 48 43 42 44 47 47 46 41 44 47 42 45 49 44 39 47 62 28 351 349 350 353 351 353 356 359 12 13 4 348 344 349 346 332 344 18 72 100 51 29 53 75
52 52 48 44 48 56 55 51 47 48 50 45 42 43 41 40 40 46 41 8 0 3 6 5 17 24 14 8 3 358 349 341 341 343 336 344 12 14 9 16 36 59 85